EW1674 Weather Reports


Display with metric or nautical units.
time (UTC)temp
F
wind
direction
speed
MPH
gust
MPH
rain 1hr
in
rain 24hr
in
rain mn
in
humidity
%
barometer
mb
20221004195004 54 0.0 0.0 0.00 0.00 0.00 79 1022.6
20221004193014 54 0.0 0.0 0.00 0.00 0.00 80 1022.5
20221004191513 54 0.0 0.0 0.00 0.00 0.00 80 1022.6
20221004190011 54 0.0 0.0 0.00 0.00 0.00 80 1022.4
20221004184511 53 0.0 0.0 0.00 0.00 0.00 81 1022.1
20221004183009 53 0.0 0.0 0.00 0.00 0.00 82 1022.3
20221004181508 53 0.0 0.0 0.00 0.00 0.00 83 1022.3
20221004180007 53 0.0 0.0 0.00 0.00 0.00 85 1022.2
20221004174507 53 0.0 0.0 0.00 0.00 0.00 85 1022.2
20221004173006 53 0.0 0.0 0.00 0.00 0.00 85 1022.1
20221004161604 52 0.0 0.0 0.00 0.00 0.00 85 1022.3
20221004160058 52 0.0 0.0 0.00 0.00 0.00 86 1022.5
20221004154600 52 0.0 0.0 0.00 0.00 0.00 86 1022.5
20221004153057 52 0.0 0.0 0.00 0.00 0.00 86 1022.7
20221004151555 52 0.0 0.0 0.00 0.00 0.00 85 1022.9
20221004150105 52 0.0 0.0 0.00 0.00 0.00 85 1023.0
20221004144553 52 0.0 0.0 0.00 0.00 0.00 85 1022.7
20221004143055 52 0.0 0.0 0.00 0.00 0.00 85 1022.6
20221004141549 52 0.0 0.0 0.00 0.00 0.00 84 1022.9
20221004140048 52 0.0 0.0 0.00 0.00 0.00 84 1023.0
20221004134547 52 0.0 0.0 0.00 0.00 0.00 82 1023.0
20221004133046 52 0.0 0.0 0.00 0.00 0.00 81 1022.8
20221004131553 52 0.0 0.0 0.00 0.00 0.00 79 1022.9
20221004130043 52 0.0 0.0 0.00 0.00 0.00 79 1023.0
20221004124543 52 0.0 0.0 0.00 0.00 0.00 79 1022.9
20221004123040 52 0.0 0.0 0.00 0.00 0.00 80 1023.1
20221004121545 52 0.0 0.0 0.00 0.00 0.00 79 1023.0
20221004120039 52 0.0 0.0 0.00 0.00 0.00 79 1023.2
20221004114546 52 0.0 0.0 0.00 0.00 0.00 79 1023.2
20221004113037 53 0.0 0.0 0.00 0.00 0.00 78 1023.3
20221004111537 53 0.0 0.0 0.00 0.00 0.00 78 1023.3
20221004110036 53 0.0 0.0 0.00 0.00 0.00 78 1023.5
20221004104538 53 0.0 0.0 0.00 0.00 0.00 78 1023.7
20221004103035 53 0.0 0.0 0.00 0.00 0.00 78 1023.6
20221004101534 53 0.0 0.0 0.00 0.00 0.00 77 1023.6
20221004100034 53 0.0 0.0 0.00 0.00 0.00 78 1023.5
20221004094535 53 0.0 0.0 0.00 0.00 0.00 78 1023.5
20221004093132 54 0.0 0.0 0.00 0.00 0.00 78 1023.4
20221004091532 54 0.0 0.0 0.00 0.00 0.00 79 1023.4
20221004090032 55 0.0 0.0 0.00 0.00 0.00 80 1023.2
20221004084531 55 0.0 0.0 0.00 0.00 0.00 79 1023.1
20221004083033 54 0.0 0.0 0.00 0.00 0.00 75 1022.7
20221004081530 54 0.0 0.0 0.00 0.00 0.00 73 1022.8
20221004080032 54 0.0 0.0 0.00 0.00 0.00 72 1022.9
20221004074530 55 0.0 0.0 0.00 0.00 0.00 71 1022.8
20221004073027 55 0.0 0.0 0.00 0.00 0.00 70 1022.6
20221004071538 55 0.0 0.0 0.00 0.00 0.00 68 1022.6
20221004070025 55 0.0 0.0 0.00 0.00 0.00 68 1022.6
20221004064525 55 0.0 0.0 0.00 0.00 0.00 66 1022.7
20221004063025 56 0.0 0.0 0.00 0.00 0.00 64 1022.6
20221004061531 56 0.0 0.0 0.00 0.00 0.00 65 1022.6
20221004060023 56 0.0 0.0 0.00 0.00 0.00 65 1022.7
20221004054529 57 0.0 0.0 0.00 0.00 0.00 66 1022.9
20221004053024 57 0.0 0.0 0.00 0.00 0.00 67 1022.8
20221004051521 57 0.0 0.0 0.00 0.00 0.00 65 1022.9
20221004050020 57 0.0 0.0 0.00 0.00 0.00 67 1022.9
20221004043019 57 0.0 0.0 0.00 0.00 0.00 67 1022.8
20221004041529 57 0.0 0.0 0.00 0.00 0.00 66 1023.0
20221004040017 58 0.0 0.0 0.00 0.00 0.00 66 1023.0
20221004034516 59 0.0 0.0 0.00 0.00 0.00 66 1023.0
20221004033015 58 0.0 0.0 0.00 0.00 0.00 66 1023.1
20221004031520 58 0.0 0.0 0.00 0.00 0.00 67 1023.2
20221004030011 58 0.0 0.0 0.00 0.00 0.00 66 1023.4
20221004024511 58 0.0 0.0 0.00 0.00 0.00 68 1023.5
20221004023008 58 0.0 0.0 0.00 0.00 0.00 68 1023.4
20221004021514 57 0.0 0.0 0.00 0.00 0.00 68 1023.5
20221004020009 57 0.0 0.0 0.00 0.00 0.00 70 1023.5
20221004014503 57 0.0 0.0 0.00 0.00 0.00 71 1023.5
20221004013002 56 0.0 0.0 0.00 0.00 0.00 73 1023.5
20221004011600 56 0.0 0.0 0.00 0.00 0.00 76 1023.6
20221004010059 56 0.0 0.0 0.00 0.00 0.00 77 1023.6
20221004004559 55 0.0 0.0 0.00 0.00 0.00 78 1023.7
20221004003102 56 0.0 0.0 0.00 0.00 0.00 77 1023.7
20221004001603 57 0.0 0.0 0.00 0.00 0.00 77 1023.6
20221004000057 57 0.0 0.0 0.00 0.00 0.00 76 1023.7
20221003234622 56 0.0 0.0 0.00 0.00 0.00 79 1023.7
20221003233054 55 0.0 0.0 0.00 0.00 0.00 80 1023.6
20221003231554 55 0.0 0.0 0.00 0.00 0.00 81 1023.6
20221003230051 55 0.0 0.0 0.00 0.00 0.00 80 1023.5
20221003224548 55 0.0 0.0 0.00 0.00 0.00 80 1023.3
20221003223047 55 0.0 0.0 0.00 0.00 0.00 81 1023.2
20221003221544 54 0.0 0.0 0.00 0.00 0.00 84 1023.0
20221003220042 54 0.0 0.0 0.00 0.00 0.00 85 1023.0
20221003214551 54 0.0 0.0 0.00 0.00 0.00 85 1023.0
20221003213039 53 0.0 0.0 0.00 0.00 0.00 85 1022.9
20221003211544 52 0.0 0.0 0.00 0.00 0.00 87 1022.8
20221003210045 51 0.0 0.0 0.00 0.00 0.00 90 1022.9
20221003204536 50 0.0 0.0 0.00 0.00 0.00 91 1022.8
20221003203037 50 0.0 0.0 0.00 0.00 0.00 91 1022.6
20221003201531 50 0.0 0.0 0.00 0.00 0.00 91 1022.4
20221003200031 50 0.0 0.0 0.00 0.00 0.00 91 1022.3